RH
52 50 49 49 47 50 51 47 62 77 77 85 94 86 72 72 75 75 78 75 72 66 57 59 61 59 60 58 61 59 59 67 70 76 73 69 65 59 57 54 54 50 52 55 60 64 65 68 68 75 81 81 84 84 86 87 89 91 93 94 92 91 96 98 96 97 98 99 100 95 91 89 89 89 88 88 92 92 85 85 85 83 86 88 87 91 90 85 88 89 89 93 96 99 97 97 98
52 54 51 49 48 49 53 53 77 93 84 88 94 89 78 76 74 75 83 80 72 63 58 59 59 60 61 62 60 58 60 64 66 64 67 69 61 58 59 56 51 49 52 53 58 63 65 68 70 75 80 83 85 86 86 87 88 88 89 89 91 93 95 96 95 97 98 100 100 99 95 92 94 95 95 90 90 87 84 88 84 82 84 87 89 90 90 85 87 89 93 98 99 100 100 99 100
53 57 52 52 51 49 56 60 83 97 88 91 94 92 81 75 79 82 82 76 69 61 59 57 58 62 59 61 57 57 57 62 68 66 72 67 58 59 56 55 53 50 51 53 58 62 66 69 72 76 80 85 83 84 85 86 89 85 87 88 91 94 95 95 97 98 99 100 98 99 95 91 93 93 93 86 85 82 80 85 80 81 84 87 89 90 93 91 87 86 95 100 100 100 100 100 100
56 57 55 54 52 55 71 79 93 98 90 94 85 84 88 77 78 85 75 65 64 58 58 56 59 62 58 60 60 62 58 61 69 70 77 70 65 68 57 53 52 49 49 54 59 62 68 70 73 78 81 83 79 82 84 86 89 85 87 90 90 90 96 98 98 99 97 98 97 98 92 90 93 91 91 78 78 80 74 81 80 81 85 87 86 89 92 91 88 84 95 100 99 100 98 98 99
57 57 56 54 55 62 78 89 96 91 87 93 76 74 90 87 80 82 73 61 61 57 56 55 59 62 61 61 59 64 64 65 73 78 85 82 78 73 58 47 44 45 49 56 64 68 72 74 76 80 82 83 79 81 83 85 87 89 88 90 91 84 90 96 97 99 96 99 98 98 94 94 92 87 93 77 73 81 76 79 82 84 85 88 88 91 91 86 88 87 95 100 100 100 97 97 99
56 58 58 54 57 60 72 84 90 91 91 88 73 74 83 85 82 76 67 59 59 58 57 56 57 59 58 58 62 80 88 83 85 91 93 93 86 73 58 47 45 50 56 64 70 74 77 78 79 82 86 82 74 76 84 86 85 90 90 91 94 84 84 89 96 99 95 98 97 99 96 96 92 81 89 76 63 67 71 77 79 83 86 90 92 92 92 87 89 89 95 100 100 99 97 99 100
56 58 58 60 63 65 81 92 94 95 88 80 75 78 76 73 72 71 68 62 62 60 59 59 52 53 56 51 66 95 99 93 95 99 99 96 88 74 58 45 45 45 48 54 55 59 60 59 60 66 75 73 72 79 85 87 87 92 95 95 97 91 88 89 93 98 98 97 95 101 96 98 98 76 73 67 52 51 61 76 75 78 85 92 95 93 89 88 91 92 96 100 100 99 98 98 98
58 57 57 74 84 82 95 99 98 95 83 80 79 74 69 69 68 76 74 62 65 65 63 60 48 51 57 50 70 97 93 93 99 98 92 86 82 70 54 40 37 34 35 39 39 43 42 40 38 41 48 52 65 84 88 85 89 93 96 96 97 94 93 91 87 92 99 98 95 100 97 100 98 75 72 62 52 57 65 74 68 68 83 93 94 93 91 87 89 90 90 90 89 92 97 98 98
56 56 60 79 91 87 95 96 90 87 83 79 72 60 60 68 63 66 65 54 60 65 65 60 49 49 54 56 72 84 83 93 100 93 78 75 81 72 55 42 39 39 39 38 37 39 38 37 35 33 33 33 41 59 69 73 80 86 89 89 92 93 93 93 87 88 93 96 98 98 99 101 91 74 77 65 58 70 70 68 66 68 78 88 90 92 94 87 84 85 81 78 78 82 93 98 100
55 59 66 83 90 83 87 89 84 78 79 76 61 46 47 56 47 44 46 42 51 62 68 62 54 52 52 62 73 75 82 94 93 81 69 76 85 73 57 49 48 48 47 46 42 40 37 35 33 31 30 28 27 29 34 43 55 66 76 82 86 90 91 91 89 89 89 94 99 95 94 97 89 77 81 80 76 76 66 61 73 77 68 73 85 90 94 87 85 86 81 82 84 87 94 97 98
59 62 66 86 95 86 84 86 89 84 81 72 48 32 35 42 34 39 45 44 54 63 67 60 55 53 51 67 79 82 90 91 84 80 78 86 85 68 59 57 56 54 54 52 48 46 42 38 35 33 31 30 28 24 22 24 33 45 58 71 82 87 86 87 87 88 89 94 100 96 94 95 89 80 81 84 80 79 75 72 81 86 75 74 84 91 96 89 87 90 86 88 88 91 98 98 97
58 76 83 92 95 88 85 87 91 89 84 63 35 27 31 31 29 42 53 53 54 52 49 45 52 51 44 59 73 78 86 85 86 90 91 93 86 72 66 65 60 58 59 56 56 54 49 45 40 38 38 37 35 29 26 24 32 43 50 56 67 74 72 75 77 81 88 93 100 98 97 98 88 80 83 81 81 92 96 89 87 89 89 89 90 94 98 90 85 90 90 91 91 92 96 97 96
57 83 88 83 91 91 86 87 88 83 79 59 34 29 29 27 31 39 44 42 38 38 37 33 43 46 39 49 59 64 76 85 91 93 93 93 89 80 72 67 63 62 62 59 59 57 55 53 48 46 45 45 45 38 31 32 45 59 68 66 64 63 59 64 71 79 85 88 99 101 99 99 88 82 87 89 85 89 91 83 78 82 89 91 93 94 95 87 80 88 91 91 93 94 92 91 92
51 66 72 74 88 94 84 77 78 77 74 58 32 25 29 30 34 33 31 33 34 34 34 31 34 36 40 49 50 55 69 83 88 87 90 92 90 84 74 70 70 68 66 64 61 58 59 58 56 55 51 49 47 43 37 41 58 71 84 86 78 72 65 64 68 78 79 74 88 98 99 92 78 69 70 73 68 64 67 67 65 70 75 75 79 84 84 80 78 87 90 91 92 94 97 90 89
45 50 69 79 84 89 79 69 75 76 62 45 25 21 28 30 28 25 25 34 39 33 30 31 30 36 49 58 58 57 65 78 83 82 83 84 85 82 74 72 70 67 65 64 62 60 58 57 58 58 56 55 52 49 47 48 61 73 86 93 88 83 76 70 69 76 74 69 83 94 91 79 67 64 60 60 58 55 54 55 57 57 60 60 59 67 75 73 76 86 88 95 92 89 96 87 84
44 48 71 78 79 81 75 72 73 67 56 38 23 20 24 27 24 21 24 30 34 32 30 31 35 48 55 59 61 56 60 71 75 75 74 77 82 78 72 68 63 60 57 56 56 56 55 55 56 58 58 60 62 59 55 54 59 72 88 94 86 80 79 71 61 64 69 77 90 86 76 70 69 69 67 66 63 61 55 52 54 50 53 57 51 57 73 74 75 84 87 93 90 84 87 81 81
39 51 74 77 80 76 72 76 57 44 49 36 19 19 21 24 23 23 26 28 34 39 38 39 43 51 53 52 53 50 56 63 63 67 70 74 79 73 66 61 55 52 52 52 53 54 55 55 53 53 54 61 70 68 60 55 59 70 81 89 86 85 89 76 64 73 82 85 81 70 65 73 76 69 67 71 67 65 62 58 59 54 54 61 58 57 73 82 83 90 91 87 86 87 81 77 82
49 70 69 68 85 77 71 73 47 31 35 27 18 19 21 23 25 24 26 29 36 42 43 46 48 46 46 46 45 45 49 52 56 66 70 68 67 62 55 49 47 47 49 50 52 53 53 57 58 55 55 62 72 75 68 55 61 72 72 85 92 93 97 85 79 88 87 78 67 63 65 70 73 69 63 65 66 67 67 65 65 62 59 66 69 65 71 81 87 92 95 90 86 90 82 73 81
64 83 65 69 88 72 59 52 35 28 26 24 22 19 20 23 25 21 27 36 36 43 46 44 46 45 42 41 39 39 40 40 46 52 52 51 48 44 42 40 43 46 50 53 54 58 61 66 70 67 64 65 69 76 76 61 65 81 81 90 98 96 98 90 84 83 77 70 64 65 65 65 69 72 66 62 68 71 71 70 69 68 66 69 74 77 80 80 85 90 94 96 91 93 85 68 75
55 65 67 81 84 64 50 38 28 26 24 24 22 19 22 23 22 19 30 43 45 54 56 46 46 45 40 39 36 35 34 32 34 35 34 35 36 35 37 40 44 50 58 65 68 70 72 74 75 77 75 72 70 74 81 70 67 86 93 97 101 99 100 96 93 90 87 81 73 71 71 72 75 77 72 67 71 75 74 71 70 69 70 72 71 79 87 83 85 91 92 97 97 98 91 67 60
45 57 72 77 70 56 41 33 31 26 24 24 20 19 23 22 21 23 26 34 48 61 58 52 52 47 42 39 36 35 31 30 29 28 29 29 32 35 40 46 53 61 67 70 73 74 77 78 78 80 81 80 75 71 80 79 73 86 93 96 101 99 100 100 99 99 95 89 82 81 82 84 84 82 78 76 77 75 72 72 72 72 74 75 71 77 88 86 83 87 88 93 97 97 97 79 57
42 53 59 56 55 46 28 25 28 24 23 23 21 20 21 24 30 32 28 36 54 61 55 52 52 47 46 42 38 36 31 30 29 28 31 33 36 39 42 47 51 57 63 67 71 77 82 85 85 84 84 84 81 76 83 88 83 89 94 95 100 98 99 100 99 100 98 94 92 92 94 94 93 89 87 88 86 77 72 75 77 76 76 78 80 82 85 87 86 84 83 86 90 88 89 87 75
33 39 37 39 42 36 24 21 24 23 23 22 22 22 22 30 43 42 39 54 62 57 53 50 49 48 47 43 38 35 33 34 34 36 39 40 42 45 47 48 49 53 60 67 74 81 85 88 90 89 87 84 83 80 84 92 90 96 98 92 97 99 98 100 99 99 100 99 99 99 100 99 98 97 95 91 87 82 78 79 79 76 74 74 79 78 74 82 86 81 78 77 79 76 73 75 75
26 31 29 30 29 30 26 20 22 21 20 22 21 22 27 35 44 46 50 61 58 52 52 48 48 48 44 40 37 37 39 40 41 44 45 47 49 51 53 53 54 56 57 63 70 78 85 92 96 95 92 90 88 84 84 92 95 100 99 85 92 100 95 98 101 99 99 97 98 99 100 100 99 100 98 91 88 88 87 87 85 80 75 73 75 70 67 76 79 76 75 70 69 68 68 70 59
31 31 27 25 22 24 24 20 20 19 20 21 22 28 34 35 38 49 59 58 53 53 50 48 48 44 41 39 40 41 41 41 42 43 44 46 48 48 49 49 51 51 52 58 64 71 81 93 101 99 97 97 97 95 92 97 98 99 98 88 92 100 95 95 100 100 97 94 94 96 96 99 100 100 100 96 96 97 96 96 94 89 83 79 78 73 70 74 75 76 76 70 68 65 65 73 57
31 27 25 25 23 22 21 22 19 19 22 21 29 43 41 34 37 52 61 56 54 52 47 48 46 40 41 41 41 41 39 39 39 38 39 38 38 37 37 38 39 41 45 52 56 62 71 82 94 99 100 100 99 100 99 100 100 97 98 97 96 99 98 98 99 99 98 92 92 94 93 94 96 96 98 99 100 100 99 99 98 97 93 88 84 79 77 78 78 77 76 74 70 65 60 67 57
27 25 25 24 22 23 21 22 22 22 22 20 32 48 42 30 36 56 62 56 52 47 46 47 42 41 42 42 41 40 38 38 35 33 31 28 27 25 24 25 25 26 29 33 38 44 52 59 72 86 94 99 100 100 100 99 100 99 99 100 99 98 99 100 99 99 98 94 92 95 94 95 96 93 94 96 97 99 100 101 100 99 99 97 92 85 82 82 80 77 76 76 71 64 61 60 47
24 23 26 27 24 22 22 25 24 24 23 22 30 37 36 34 46 61 59 55 50 42 45 46 43 45 44 44 42 39 36 32 28 25 21 19 18 16 16 16 15 16 16 16 18 21 27 33 40 52 63 76 88 93 97 99 99 100 100 99 99 97 97 100 100 100 98 94 92 94 97 98 100 98 95 93 92 92 93 97 100 100 100 100 99 94 89 87 85 82 78 74 68 60 60 57 40
26 26 26 37 42 29 25 30 25 24 26 23 24 27 37 50 58 62 56 53 48 41 46 47 46 47 45 43 39 35 31 25 22 18 17 16 15 15 14 14 13 13 13 13 12 12 13 15 17 21 26 37 51 60 68 80 86 90 93 95 96 95 94 94 97 99 99 96 93 93 96 98 99 100 99 97 95 92 88 90 93 96 100 100 100 99 95 93 92 89 85 78 68 56 51 50 39
27 30 32 43 48 38 27 27 25 26 29 22 20 32 51 61 60 58 55 50 43 43 50 50 48 46 42 39 34 30 25 20 19 17 18 17 16 16 15 15 15 14 14 13 12 12 11 11 11 12 12 15 19 23 29 40 52 59 65 70 75 80 85 88 90 93 95 97 97 96 97 98 99 99 100 99 99 97 95 95 93 91 94 97 100 101 99 97 97 95 93 88 78 63 50 44 38
35 27 50 58 34 39 39 26 29 26 28 25 20 38 57 59 58 56 53 48 42 47 55 51 48 45 40 36 30 26 22 18 19 19 19 17 16 16 15 15 14 13 13 12 12 12 11 11 11 11 11 11 11 11 13 15 21 27 31 33 37 44 53 62 68 73 78 84 90 93 95 97 99 100 100 100 99 98 98 99 99 93 88 89 92 96 99 99 99 100 98 96 92 79 62 48 40
57 28 54 68 36 52 53 28 33 29 26 28 24 44 58 54 57 56 54 52 44 48 55 51 48 45 40 35 29 24 21 19 19 19 17 15 15 14 14 13 12 13 12 12 12 11 11 11 11 11 10 10 10 10 11 10 11 13 14 13 14 16 19 25 32 39 48 57 67 76 83 87 90 94 97 99 99 99 99 98 99 98 93 92 92 92 94 96 99 100 100 99 100 95 83 65 48
68 40 44 54 42 54 46 28 36 31 26 27 32 52 58 55 60 56 56 52 43 49 55 51 48 44 41 36 29 23 20 19 19 18 16 14 14 13 13 13 13 14 13 13 13 13 13 13 12 12 11 12 11 11 11 10 10 10 10 11 11 11 10 11 12 16 21 28 37 49 62 72 79 86 89 91 95 98 100 100 99 100 100 99 99 98 96 96 99 100 100 100 99 100 97 83 63
55 53 53 52 49 46 40 36 34 32 33 32 43 61 62 63 66 60 58 50 44 52 54 51 49 44 42 38 28 23 20 20 20 17 15 14 14 14 14 15 15 15 16 16 15 15 15 15 15 14 13 13 12 12 11 11 11 10 10 10 10 10 11 12 12 12 12 14 18 24 35 48 63 78 86 89 91 94 98 100 100 100 100 100 99 100 100 99 98 97 99 100 100 100 96 87 76
42 49 52 50 49 44 47 46 36 37 39 37 47 62 69 71 68 64 62 53 47 53 55 52 49 45 43 37 29 26 23 21 20 17 16 16 16 17 16 17 18 17 18 18 17 17 17 16 16 16 15 15 14 14 13 12 12 11 11 10 10 10 9 11 12 13 13 12 13 14 18 26 39 57 72 83 89 92 95 97 100 100 100 100 100 100 100 99 97 94 94 96 99 101 98 92 87
44 47 49 45 43 42 47 46 46 48 44 51 58 60 71 73 71 71 66 58 51 55 58 54 51 48 43 37 31 29 26 23 20 17 17 18 18 19 19 19 19 19 19 19 19 18 18 18 18 17 17 17 17 16 15 14 13 12 12 11 10 10 9 10 10 12 14 14 14 13 14 18 28 40 53 68 80 86 89 93 96 98 99 100 100 100 100 100 99 97 95 96 97 99 100 99 97
47 49 48 46 44 41 39 38 50 54 46 62 71 66 73 73 73 73 66 64 61 62 63 58 54 48 41 37 33 30 27 23 20 19 20 20 21 21 21 21 21 21 21 21 21 20 20 20 20 20 19 19 19 18 18 17 17 15 14 13 12 11 10 10 10 10 12 14 16 16 15 15 20 28 37 50 63 71 77 83 88 92 94 96 99 100 100 100 100 100 99 99 99 100 100 99 100
44 47 42 43 47 42 40 39 54 56 43 58 71 69 72 71 71 71 68 68 66 65 64 60 55 48 42 38 34 30 26 24 21 21 22 21 22 23 23 23 23 23 23 23 23 23 23 22 22 22 22 22 21 21 21 19 19 18 16 15 13 12 11 10 10 9 10 12 14 16 17 17 16 18 21 28 39 49 58 66 74 82 87 90 94 98 100 100 99 100 100 99 99 100 100 100 100
54 52 41 45 54 51 49 50 61 59 41 52 69 70 72 71 70 69 66 66 64 62 60 55 50 44 42 39 36 31 26 25 23 22 23 23 24 24 24 25 25 25 26 26 26 26 26 25 25 25 24 25 24 23 23 21 20 19 18 17 16 14 13 11 10 9 9 10 11 13 15 17 18 18 18 18 20 26 36 46 57 68 79 87 93 96 99 100 100 100 100 99 99 99 99 100 100
58 54 42 49 58 53 49 48 59 60 47 54 68 72 75 72 72 71 65 65 65 63 60 57 51 44 42 41 39 33 27 25 24 24 25 24 25 26 26 27 27 28 28 28 29 28 29 28 28 29 28 28 27 25 24 23 22 21 20 19 18 16 15 14 12 10 10 9 9 10 12 14 16 18 20 21 20 20 23 30 40 53 67 81 92 98 99 99 100 100 100 100 99 99 98 98 98
61 63 49 50 54 47 47 49 51 51 49 56 62 64 69 71 74 74 69 68 67 65 65 63 58 51 44 44 42 35 29 27 26 26 26 26 27 27 28 28 28 29 30 30 31 31 31 31 31 31 31 30 29 28 26 25 24 23 21 20 19 18 16 15 14 13 11 9 8 9 10 12 14 16 19 21 23 24 23 24 29 38 51 66 82 93 98 100 100 100 100 100 100 100 99 97 97
49 54 50 50 49 45 49 52 49 46 40 45 50 49 61 79 83 76 73 76 73 70 71 67 62 58 49 45 44 36 30 28 28 27 27 28 29 29 30 30 31 31 32 32 32 33 34 34 34 33 33 32 31 30 28 26 25 23 21 20 18 17 16 15 14 13 11 10 9 8 10 11 13 14 16 19 21 23 25 25 26 28 35 46 61 77 89 96 99 100 100 100 100 100 100 99 98
31 37 56 60 53 49 52 47 46 50 40 40 49 44 52 73 78 78 78 80 79 75 75 72 65 64 55 46 45 39 30 29 29 28 29 29 30 32 32 31 33 32 33 34 34 35 36 36 36 35 35 34 33 32 30 27 24 22 20 18 17 16 15 14 13 12 11 10 9 8 9 10 12 13 14 16 18 19 22 24 26 27 28 32 40 53 68 80 89 95 99 100 100 99 100 100 100
29 41 64 59 49 49 53 46 43 52 45 44 53 45 47 60 69 82 83 79 83 78 78 76 68 67 60 48 46 40 30 29 31 30 30 31 31 33 34 33 34 34 34 35 35 36 37 38 38 36 37 36 35 35 32 29 24 22 21 19 18 17 16 15 13 12 11 10 9 8 9 9 11 13 14 15 15 16 18 19 22 24 26 28 30 35 44 56 70 81 90 96 99 100 100 100 99
33 58 66 56 55 56 59 57 56 61 50 44 51 46 50 60 70 85 83 79 84 75 74 76 70 68 62 51 47 41 34 31 32 32 31 33 34 35 36 36 35 35 35 35 36 38 38 39 39 38 38 37 38 38 35 32 26 24 24 22 21 19 18 18 16 15 13 12 11 10 10 9 9 11 14 15 16 16 16 17 17 18 21 23 25 28 31 37 46 57 70 81 89 95 98 100 100
43 61 60 58 63 66 68 64 66 73 63 54 49 43 51 58 70 87 83 82 86 73 70 73 67 65 62 54 47 43 40 34 32 34 34 35 36 37 38 38 38 37 37 37 37 38 38 39 40 40 40 40 40 41 39 36 29 26 27 26 25 23 22 22 21 20 19 17 17 16 14 13 11 11 13 15 17 18 18 17 17 16 17 18 20 24 26 29 32 37 46 55 66 77 85 92 96
47 52 54 49 45 59 76 74 65 62 62 63 50 40 50 54 65 84 80 74 80 75 74 76 72 67 62 57 50 45 44 40 37 37 37 39 39 39 40 40 40 40 39 39 38 38 39 40 41 41 42 42 41 41 40 39 32 28 28 30 30 29 27 25 24 25 24 23 22 20 19 18 17 15 14 15 17 18 19 19 19 19 18 18 18 20 22 25 28 30 34 38 44 53 63 73 82
46 42 40 32 30 43 59 71 71 53 45 58 59 46 45 50 55 66 70 72 78 76 75 78 76 66 58 56 53 49 49 47 44 41 41 43 42 42 43 42 43 42 41 41 40 40 41 41 42 42 42 42 42 41 40 40 36 29 29 31 33 34 33 30 27 27 28 27 25 22 21 22 22 20 18 18 18 19 20 21 21 21 21 21 21 21 23 23 25 28 30 33 36 40 45 53 63
38 38 44 45 53 50 44 62 74 57 40 47 56 44 36 44 45 48 60 72 78 75 69 69 67 57 50 52 52 52 55 53 47 44 44 46 45 46 46 46 47 46 44 43 42 42 42 42 43 43 43 43 42 43 42 43 41 33 30 34 37 39 40 38 34 31 30 30 29 26 24 24 24 24 22 22 21 21 21 22 23 24 24 25 26 26 26 25 26 26 27 29 33 36 39 42 48
34 44 56 60 68 57 50 64 59 44 42 44 44 42 39 35 35 55 69 67 71 71 66 65 62 57 53 51 51 53 58 57 50 47 48 49 48 48 49 50 51 50 46 44 44 44 44 45 45 44 44 44 44 45 44 45 45 39 34 36 40 43 44 44 43 40 38 38 39 32 26 26 26 26 26 25 24 24 23 22 23 24 26 28 30 31 30 29 28 28 27 28 29 32 35 40 43
39 45 49 52 58 47 43 57 50 43 55 54 37 39 51 34 35 74 80 62 66 67 66 68 61 60 59 54 56 58 61 60 54 52 52 51 50 50 53 54 53 51 49 47 48 48 48 48 47 47 47 46 47 47 46 46 47 45 39 38 42 45 46 48 47 47 47 48 50 43 30 26 28 29 31 31 29 29 27 25 25 25 26 28 32 35 35 33 33 32 31 29 29 29 30 34 39
38 45 47 49 52 51 56 61 60 61 70 74 55 46 56 44 47 83 79 61 65 61 62 65 59 63 64 63 70 68 64 62 57 57 57 56 56 55 55 55 52 51 51 51 50 49 49 48 48 50 50 50 49 49 49 48 49 50 46 41 43 46 48 49 49 50 51 53 57 53 38 29 30 33 36 39 40 39 36 34 33 32 31 31 35 40 41 40 39 39 37 35 33 31 29 30 32
37 44 45 46 42 54 65 55 60 74 69 66 58 46 52 43 44 73 75 63 61 55 59 62 59 66 68 70 76 71 66 63 61 62 60 58 56 52 52 52 52 53 53 53 51 50 51 51 51 52 52 53 53 53 52 50 52 55 52 46 45 47 49 51 51 51 53 56 60 60 47 34 33 37 41 47 52 55 53 49 46 44 42 39 41 46 50 51 51 50 48 44 40 36 33 32 31
40 42 40 41 36 44 57 54 69 84 66 55 54 51 59 52 43 57 61 57 59 58 60 61 61 65 67 71 72 68 67 64 61 60 55 53 52 51 53 54 55 56 54 54 53 53 53 52 53 52 52 55 57 59 60 57 58 59 57 51 47 49 50 51 53 52 54 58 61 62 54 42 39 41 46 54 62 69 71 68 62 58 55 51 49 52 57 62 64 64 61 55 50 46 41 36 34
37 39 30 29 34 38 47 54 63 63 55 59 63 59 62 62 60 60 56 60 67 66 67 69 68 67 66 67 63 60 60 55 53 52 51 53 53 54 57 56 57 56 55 56 56 54 53 50 50 47 45 45 46 52 61 65 66 64 62 59 53 52 53 53 54 54 57 61 63 63 57 53 51 48 50 58 67 76 81 82 76 70 67 62 57 58 63 67 71 75 73 65 57 53 50 44 39
32 36 36 44 57 56 51 53 59 61 61 65 65 60 59 62 68 69 64 68 74 74 74 69 62 58 56 54 51 50 50 49 50 51 53 55 55 57 59 57 59 59 58 59 56 54 52 47 44 40 37 38 39 44 55 66 72 71 70 66 60 57 56 56 56 57 60 63 63 62 58 58 58 54 54 60 70 79 85 88 85 78 73 70 66 65 67 72 76 80 81 74 66 61 56 50 43
36 43 48 55 60 59 53 50 62 71 71 78 80 68 57 54 60 69 70 71 76 76 68 55 48 47 46 47 48 48 49 49 51 53 56 58 59 61 61 61 63 62 61 59 56 54 51 47 44 41 43 52 58 64 71 77 80 79 78 74 69 65 63 62 64 65 65 65 65 64 61 60 58 56 59 65 74 82 86 90 90 83 76 73 72 71 73 78 81 84 85 81 74 68 61 54 47
46 46 47 52 54 61 59 54 72 82 74 82 85 68 59 58 61 72 72 67 69 65 53 45 45 46 47 49 50 50 51 52 55 58 61 63 64 64 65 66 65 63 62 61 60 58 53 51 50 47 51 60 65 69 77 86 89 87 85 80 75 73 72 75 79 75 69 67 68 66 64 62 59 60 68 73 79 85 89 93 90 81 78 77 77 77 79 83 86 88 88 83 78 72 63 56 49
Wind_Speed
7 6 6 3 1 2 2 4 2 3 2 1 1 1 2 1 1 1 1 1 0 1 3 4 5 5 4 3 2 1 2 2 2 1 1 4 8 9 11 12 13 13 13 12 11 11 12 12 13 13 12 10 11 12 12 12 14 18 18 16 15 15 17 19 19 19 18 18 19 17 15 14 14 13 12 12 12 13 13 14 15 15 14 13 14 14 13 13 12 12 11 12 12 14 14 15 18
5 4 4 1 2 3 2 3 2 2 3 1 2 2 2 2 1 3 5 3 1 3 5 5 5 5 5 3 2 3 2 2 2 2 3 6 8 8 9 11 12 13 13 12 12 11 11 12 13 13 13 12 11 12 12 12 13 15 17 17 17 19 19 20 22 23 20 19 20 17 15 15 13 13 12 12 12 13 13 14 14 14 14 14 14 14 13 14 15 13 12 13 12 14 15 15 17
3 2 2 1 2 4 3 3 2 1 2 1 4 3 1 1 3 6 7 4 3 6 7 5 5 4 4 3 2 3 3 3 5 5 5 6 7 8 9 10 12 12 13 13 13 12 11 12 12 13 13 13 13 13 14 14 15 15 16 16 17 19 20 21 24 23 21 22 20 18 18 16 14 13 13 13 12 12 12 12 13 13 14 14 15 14 13 13 16 16 13 14 13 12 14 15 15
2 2 2 2 4 4 4 3 1 3 2 3 3 4 2 3 4 4 3 3 5 7 5 4 4 3 3 3 2 3 4 5 7 8 7 8 8 8 9 9 11 11 12 12 13 12 11 12 12 13 13 14 14 15 17 17 19 20 20 18 16 18 19 21 24 24 25 24 22 22 22 19 17 15 13 12 12 12 12 12 12 13 13 14 15 14 15 13 14 17 15 14 13 12 14 15 14
2 3 2 3 4 2 3 3 2 3 2 3 0 4 3 4 4 2 2 4 5 5 3 3 2 2 4 4 2 3 7 6 9 11 9 9 8 8 10 10 10 10 11 12 13 13 12 13 13 13 13 14 15 16 18 19 20 21 21 20 18 18 19 20 23 27 28 26 24 25 24 24 22 19 16 13 13 13 12 12 12 12 13 13 14 14 14 14 14 17 16 14 13 13 16 16 14
2 3 3 4 4 2 2 2 1 1 3 4 1 4 3 4 4 2 4 6 5 4 3 3 3 3 4 4 7 10 10 7 9 14 12 10 9 8 10 10 11 10 11 12 12 13 13 14 14 13 13 13 15 17 18 19 19 20 22 20 19 20 19 19 22 27 30 28 27 27 23 24 23 21 20 15 14 14 12 12 13 12 13 13 14 13 13 14 15 17 17 16 14 14 16 16 13
1 2 3 4 4 3 2 2 3 2 3 4 2 4 4 5 3 4 5 5 3 3 3 4 4 4 2 2 8 12 10 9 11 13 10 8 7 7 8 8 8 8 9 9 10 12 12 13 14 14 14 14 14 17 18 18 18 19 21 20 19 20 21 20 21 24 29 31 32 30 25 24 23 21 19 17 14 11 11 12 13 13 13 13 13 13 13 13 14 16 17 17 17 16 16 16 15
0 1 3 3 3 3 3 2 2 3 2 3 3 5 6 3 4 5 4 3 2 2 3 5 4 3 1 0 6 8 9 11 10 7 5 5 6 6 7 6 5 6 7 7 9 10 11 12 13 14 15 15 14 15 17 17 17 18 19 19 19 20 21 20 19 22 25 32 35 31 30 28 24 19 16 16 13 10 11 12 12 13 14 13 13 13 12 13 14 14 15 16 18 19 18 18 17
2 2 3 3 2 2 2 1 2 2 3 3 3 4 2 3 6 6 3 2 3 2 4 4 3 2 1 3 7 4 6 9 6 2 3 6 6 7 6 5 5 6 6 7 8 9 10 11 12 13 14 15 14 15 17 18 18 18 20 20 20 20 22 22 20 21 23 29 31 28 32 30 22 17 18 16 12 11 10 12 13 13 15 14 12 12 11 13 13 13 14 15 18 18 18 19 18
3 3 2 3 2 1 2 2 1 2 3 4 4 4 1 4 5 7 4 3 3 3 4 2 1 3 2 5 6 5 7 5 1 2 3 7 7 7 7 7 6 6 6 7 8 10 11 12 13 13 13 14 13 14 16 18 20 21 21 22 22 21 22 23 21 20 21 25 29 29 30 27 20 19 19 13 11 12 8 10 13 12 14 14 13 13 11 12 12 12 11 12 14 14 16 19 18
2 3 3 3 3 1 2 2 3 3 4 5 3 3 4 4 6 6 5 6 4 4 4 2 2 3 3 6 6 5 5 3 3 0 6 7 7 7 8 8 7 7 7 7 8 9 11 12 13 14 14 15 14 14 14 15 18 20 22 24 24 23 23 23 22 20 20 23 28 30 29 27 22 18 13 11 9 10 9 11 13 12 14 16 16 14 11 11 11 10 10 10 11 11 14 17 19
1 2 3 3 2 2 2 2 3 4 5 4 1 5 4 5 6 5 6 7 4 4 5 7 4 2 1 4 6 4 1 2 2 5 6 6 7 7 7 7 7 8 8 8 9 9 10 11 12 14 15 15 16 16 15 14 15 17 20 23 24 24 24 24 24 21 21 22 25 29 29 27 18 10 6 6 7 9 10 11 12 12 13 15 15 12 11 11 10 9 9 10 9 9 12 14 19
2 2 4 2 2 2 2 2 3 4 5 2 1 4 4 4 5 6 9 9 7 3 4 10 4 1 1 1 1 3 2 3 6 6 5 5 7 8 8 8 9 10 10 10 11 11 11 11 12 13 15 16 17 17 16 15 14 16 18 20 22 23 22 22 23 20 22 22 25 31 27 22 12 6 6 7 6 6 8 10 11 10 11 12 11 10 10 11 10 9 9 10 9 9 11 13 17
3 3 4 2 1 2 3 1 1 1 3 3 1 4 5 6 8 9 9 7 8 4 2 8 3 3 3 2 3 7 7 7 7 5 6 6 8 10 10 10 11 11 12 13 13 14 13 12 13 13 15 16 17 18 17 16 15 17 18 19 19 20 19 18 19 18 19 15 22 28 21 15 11 10 7 3 5 7 9 11 12 12 12 12 10 11 12 13 11 11 10 10 11 11 11 13 18
4 3 4 3 1 0 3 1 2 3 3 3 3 5 9 9 7 8 6 6 6 6 3 3 5 1 3 4 6 13 12 9 8 7 7 7 9 11 12 12 12 13 13 14 14 16 16 15 14 13 14 15 16 17 17 16 16 17 18 19 17 16 15 15 16 16 15 9 21 23 15 16 16 11 6 3 5 9 12 13 13 13 14 13 11 13 14 15 13 13 12 12 15 16 14 16 21
4 3 4 2 0 2 2 2 3 3 4 3 2 5 9 9 6 7 6 6 7 9 3 3 7 6 6 5 7 13 12 11 10 10 10 10 12 12 12 13 12 13 14 15 15 16 17 17 16 14 14 14 15 15 16 15 16 16 17 19 17 15 16 14 14 15 15 13 20 21 18 19 14 13 11 6 7 9 14 17 16 15 15 15 13 14 16 16 15 15 14 17 19 18 16 18 22
3 3 4 1 2 2 3 3 2 2 3 3 2 3 6 6 8 11 8 7 11 12 12 12 11 10 11 10 8 9 9 10 11 12 14 14 14 14 15 15 15 16 15 16 16 16 16 17 17 16 14 13 13 14 15 14 15 15 15 19 20 20 21 18 13 8 4 9 18 23 21 18 7 17 14 5 9 10 13 16 16 14 15 17 17 17 20 18 17 17 17 21 23 19 16 19 22
3 3 3 1 3 3 4 6 5 3 2 2 3 5 6 4 5 9 7 9 14 14 16 15 12 12 12 10 8 8 8 9 11 13 14 14 15 15 17 18 18 17 16 15 15 16 16 16 16 16 15 14 13 13 14 14 14 16 15 17 20 21 20 17 15 13 12 14 18 20 17 14 7 13 12 5 10 12 13 14 14 12 14 17 18 20 22 19 19 20 21 23 23 20 18 20 23
3 3 2 3 5 5 5 6 6 3 3 5 5 5 6 3 2 4 3 6 11 11 11 9 8 9 8 7 7 7 8 9 11 12 13 14 14 15 17 17 18 17 16 16 15 16 16 16 15 15 15 14 14 13 13 14 14 16 16 16 18 16 10 10 10 9 4 5 11 15 12 14 17 13 6 5 12 16 13 13 13 13 14 17 18 19 20 19 21 22 23 24 22 21 19 20 24
2 3 2 5 6 4 4 5 4 3 4 9 7 5 6 5 1 3 6 9 11 8 8 6 7 9 8 9 9 9 10 11 11 12 12 13 14 15 16 16 17 17 17 17 16 15 15 15 14 14 14 13 14 14 13 14 13 14 15 15 17 12 2 2 5 5 9 9 10 13 16 21 20 12 7 7 15 17 13 13 13 13 15 18 19 20 20 22 24 25 25 25 23 22 21 20 23
2 4 3 4 5 2 3 4 4 4 5 8 8 7 7 8 6 5 8 7 7 6 6 6 7 10 11 11 11 11 12 12 12 12 13 13 14 14 14 15 15 15 15 15 15 15 16 15 14 14 14 14 14 14 14 14 14 15 14 14 15 11 1 5 6 8 10 11 14 15 18 20 17 14 13 14 17 16 13 13 13 14 16 19 21 21 22 24 26 25 25 27 26 25 23 21 21
2 3 4 3 6 1 2 2 4 5 5 7 8 7 6 7 11 12 7 4 3 4 4 4 6 8 10 11 11 11 11 12 13 13 14 14 14 14 14 13 12 13 14 14 14 16 16 16 15 14 14 14 13 14 14 13 13 14 14 12 11 11 6 3 8 10 12 16 18 18 20 20 17 15 15 17 18 15 15 16 15 16 17 20 23 23 24 25 26 25 25 27 27 27 25 23 22
2 3 2 2 5 3 3 2 5 5 5 6 7 7 9 11 12 14 15 13 8 5 4 5 7 7 8 9 9 10 12 14 14 16 16 16 16 16 16 15 14 14 14 14 14 15 15 16 16 15 14 14 13 13 14 12 12 12 11 9 8 9 9 8 7 6 8 14 19 20 23 22 17 15 14 14 15 16 17 17 17 17 18 21 24 24 25 26 25 24 24 25 25 24 22 22 22
3 2 3 0 2 4 3 2 3 4 3 5 9 10 8 10 9 11 17 14 8 7 6 7 7 6 6 6 8 11 13 15 16 18 18 18 18 17 17 15 15 14 12 14 14 15 15 16 16 16 15 15 14 13 14 13 12 11 10 8 8 10 8 9 12 9 7 7 11 14 19 22 19 17 16 16 17 19 20 20 19 19 20 22 24 24 24 25 25 24 24 23 23 22 20 20 20
4 2 3 1 1 2 3 4 5 4 2 8 11 10 7 10 13 12 13 10 8 8 7 7 7 6 7 8 12 14 15 17 19 20 20 21 21 20 20 19 18 17 16 16 16 16 17 17 17 16 16 16 17 16 15 14 14 14 13 10 8 10 8 8 11 10 9 8 8 9 10 14 18 20 21 21 22 24 24 23 22 22 23 23 23 24 25 26 25 25 25 23 23 22 21 21 20
2 1 2 3 4 4 5 7 8 7 7 13 10 11 13 16 14 11 8 9 8 8 8 8 7 9 12 15 17 18 19 20 22 23 24 24 24 24 25 25 25 25 24 22 20 20 19 19 18 18 17 17 18 17 16 16 16 17 16 11 8 9 7 6 10 11 10 9 8 8 8 9 12 16 21 23 23 26 28 27 26 25 25 25 24 25 26 26 26 26 25 24 23 22 21 21 21
2 2 4 6 8 9 7 7 8 7 11 14 10 8 10 9 4 4 7 9 8 8 10 11 10 14 18 19 20 21 22 23 23 24 24 25 26 27 27 27 28 28 27 26 26 25 22 21 20 20 19 18 18 17 17 16 17 18 18 15 11 9 8 5 7 9 11 12 10 10 9 8 9 12 16 20 20 23 26 28 29 29 29 28 27 26 27 27 26 25 25 24 24 23 22 21 22
4 3 5 7 8 8 6 6 6 5 7 12 16 10 3 4 3 7 11 10 8 8 13 13 15 19 20 21 22 22 23 24 24 24 25 27 28 28 28 28 28 28 28 29 28 26 25 25 24 23 22 20 19 18 18 17 17 18 18 18 17 15 14 10 6 5 8 11 12 11 10 9 8 9 12 16 19 21 23 25 26 29 31 31 30 28 28 29 27 26 26 24 24 23 22 21 21
2 1 3 7 8 5 4 5 2 5 3 13 19 8 2 6 5 10 13 11 9 10 14 16 18 19 20 21 21 22 23 23 24 26 27 28 28 28 28 29 29 29 29 29 28 27 28 28 27 27 26 23 22 21 21 20 19 18 18 18 18 18 18 17 15 12 9 8 10 11 11 11 10 10 10 12 16 18 22 26 26 25 27 29 32 31 30 30 29 29 28 27 25 23 22 22 21
2 2 2 4 7 4 4 4 4 4 5 15 12 1 2 3 6 13 13 11 11 12 16 16 18 19 19 20 21 22 22 23 25 26 27 26 27 27 27 28 28 29 29 28 29 30 30 30 29 29 29 28 27 25 24 23 22 21 21 20 19 19 19 19 19 19 16 13 12 12 13 13 13 12 12 12 13 15 17 22 24 25 26 25 27 30 32 32 32 31 31 30 28 26 24 23 22
1 1 2 3 2 3 5 3 4 6 4 9 4 2 4 2 8 14 12 7 8 13 16 15 17 17 18 19 20 21 22 24 25 25 25 25 25 25 26 27 27 28 28 29 30 31 31 31 31 31 31 31 30 29 28 27 25 23 23 23 22 21 20 19 19 19 20 19 17 16 15 15 14 13 12 12 12 13 13 16 19 22 26 28 28 29 31 33 34 34 33 32 32 30 27 25 24
2 1 2 3 1 5 7 4 3 4 5 2 2 2 2 3 8 12 9 4 5 13 15 14 15 16 16 18 19 21 22 22 23 24 24 24 25 26 27 27 28 29 30 31 31 31 32 32 33 32 32 33 33 33 32 30 28 26 25 25 25 24 23 22 21 20 20 20 20 19 18 17 17 16 16 15 14 13 12 13 15 18 21 26 28 29 29 30 33 34 34 33 33 32 30 29 27
4 2 1 2 1 3 4 3 6 3 6 2 3 4 1 2 6 8 9 7 10 15 14 13 14 14 15 16 17 19 19 20 21 23 24 25 26 26 27 28 29 29 30 31 31 31 32 33 33 34 34 35 35 34 34 33 32 30 29 28 28 27 26 26 24 22 20 19 19 20 19 19 19 18 18 18 17 16 15 13 14 15 18 20 23 25 26 27 29 32 34 34 34 33 32 31 31
3 2 1 2 1 1 3 2 8 7 5 1 4 5 3 2 6 9 10 11 13 15 14 13 13 13 13 14 16 17 18 19 21 23 24 25 26 26 27 28 28 28 29 29 30 31 32 33 33 34 35 36 36 36 36 36 35 34 33 32 31 31 30 30 28 26 24 23 21 20 19 19 20 20 19 18 18 18 17 16 15 15 16 18 20 21 22 24 26 27 30 33 34 34 34 34 35
1 1 1 2 2 1 3 3 4 8 4 2 4 5 4 3 6 8 9 12 14 15 14 12 11 11 12 13 14 15 17 19 21 22 23 23 24 25 25 25 26 27 27 28 29 30 31 32 33 34 35 36 37 37 37 38 37 37 36 36 35 34 34 33 32 30 28 27 25 23 22 20 20 20 20 20 19 18 18 18 18 17 17 17 18 19 19 21 23 24 26 28 31 34 36 36 37
4 3 3 2 2 3 4 4 4 4 4 3 3 3 6 4 4 6 8 10 13 14 12 10 10 9 10 12 13 14 16 18 20 21 21 21 22 22 23 23 24 25 27 28 28 30 31 32 33 34 35 36 36 37 38 38 39 39 39 39 38 37 36 35 34 32 30 29 27 26 25 24 22 20 20 20 20 20 19 19 19 19 18 18 17 17 18 18 20 22 24 25 28 32 35 37 39
4 4 3 3 2 4 4 2 5 1 3 2 3 5 6 5 3 4 8 9 11 12 10 9 9 8 9 10 11 13 15 17 18 18 18 19 19 20 21 22 23 24 26 27 28 30 31 33 34 35 36 37 38 39 40 40 41 42 42 42 40 38 36 35 35 34 33 31 28 27 25 25 24 23 22 21 20 21 21 20 19 19 19 19 18 17 17 17 17 19 22 23 25 28 32 34 36
4 3 2 2 2 5 4 1 5 4 2 1 4 7 5 3 2 4 8 7 7 10 10 9 8 8 8 9 10 12 14 15 16 16 16 16 17 18 19 20 22 24 25 27 28 30 31 32 34 35 37 38 39 40 41 42 42 43 42 41 40 38 36 35 34 34 33 32 30 28 26 25 24 24 24 23 21 21 21 21 21 20 20 19 18 17 17 18 18 19 22 23 23 25 28 29 30
4 2 2 2 2 4 5 2 4 5 1 1 4 6 3 1 1 4 6 4 4 9 9 8 8 8 8 8 9 10 12 13 13 12 13 13 14 16 17 19 21 22 24 25 27 29 30 32 33 34 36 37 38 39 40 41 41 41 41 41 40 39 37 36 35 33 33 32 31 30 28 27 26 25 25 25 24 23 21 21 21 20 20 20 19 18 18 18 19 20 21 22 23 24 25 27 27
3 3 3 2 3 1 2 3 4 4 2 3 5 6 3 1 1 1 4 3 3 6 7 6 7 6 7 7 7 9 10 11 10 9 9 10 12 13 15 17 19 21 22 24 26 28 29 31 32 33 34 35 36 36 37 38 38 38 38 39 38 37 37 36 34 33 32 31 31 31 30 29 28 27 26 26 26 26 24 22 21 21 20 20 20 19 19 18 18 19 19 20 22 23 24 25 25
2 3 4 2 2 2 3 3 4 3 3 4 6 4 2 0 1 2 1 1 2 5 7 7 7 7 7 7 6 7 8 8 7 6 6 8 9 11 13 16 17 19 21 23 25 27 28 30 31 32 33 34 34 34 35 35 35 36 35 35 35 34 35 35 35 35 34 33 33 32 31 31 30 29 27 26 25 26 25 24 22 21 21 20 20 20 19 19 18 17 18 17 17 19 22 24 24
3 2 4 4 3 3 1 3 4 4 3 1 4 3 3 2 2 3 1 2 2 4 7 10 10 9 9 9 8 7 7 7 5 3 3 5 7 9 12 14 15 17 19 21 23 25 27 28 30 31 32 33 33 33 33 34 34 33 33 33 33 33 33 34 35 35 34 33 33 32 31 30 30 28 27 26 25 24 24 24 24 22 21 21 20 20 20 20 19 18 18 18 16 16 18 22 23
2 1 4 4 3 2 0 2 2 2 1 2 4 1 3 3 3 2 1 1 5 5 7 12 13 12 12 11 9 8 8 7 5 2 0 3 5 7 10 12 13 15 17 20 22 23 26 28 29 31 32 32 32 32 32 31 31 31 30 29 29 29 29 29 29 29 29 29 29 30 30 30 29 28 26 25 24 23 23 23 23 23 22 21 20 20 20 20 20 20 20 20 19 17 17 19 20
1 1 4 3 1 1 2 2 2 1 2 2 4 3 1 3 2 2 0 3 6 7 8 12 16 16 15 14 12 10 9 7 6 4 3 4 5 7 8 11 13 14 16 19 20 23 25 28 30 31 31 32 31 31 30 30 30 29 28 27 26 26 26 26 25 25 25 25 25 26 27 28 28 27 26 24 24 23 22 22 22 22 22 21 20 19 19 19 20 20 21 21 21 20 19 19 19
2 2 3 1 1 2 2 4 3 1 1 2 5 3 1 4 2 1 0 2 6 9 9 10 17 20 19 17 15 13 11 9 7 5 5 5 6 7 8 10 12 14 16 18 20 22 25 28 30 31 31 31 30 30 29 29 28 28 27 26 26 25 25 24 23 23 22 22 22 23 24 26 26 26 26 24 23 22 22 22 22 22 22 21 21 20 19 19 19 19 20 21 22 22 21 20 20
1 5 3 3 3 3 3 4 3 2 4 1 5 3 2 3 3 1 1 2 5 7 6 8 16 22 22 20 18 17 14 12 10 8 7 7 7 8 9 11 12 14 15 18 20 23 26 29 30 30 31 30 30 30 29 28 28 27 27 26 26 26 25 24 22 21 21 21 22 23 24 25 25 26 26 25 23 22 22 22 22 22 22 22 22 21 20 19 19 19 19 19 21 22 22 22 22
2 5 4 4 4 3 3 2 3 5 4 3 5 3 3 1 4 2 2 2 4 3 4 5 11 20 24 23 21 19 18 15 12 10 9 8 9 9 11 12 13 14 16 18 21 23 25 28 30 31 31 31 31 31 31 30 28 28 27 26 27 27 26 26 24 22 21 22 24 25 25 25 24 24 25 25 24 23 22 22 22 22 23 23 23 23 22 21 20 19 19 19 20 21 22 23 24
3 3 3 3 1 3 4 4 4 5 2 5 4 4 3 1 4 4 3 3 4 4 4 4 8 16 23 25 24 23 21 18 14 12 11 10 10 11 12 14 15 16 18 19 21 23 26 28 31 32 32 32 32 32 32 31 28 27 27 26 26 27 27 27 26 25 24 24 26 27 26 24 22 21 21 22 22 23 23 23 23 23 23 23 24 24 23 23 22 21 20 20 19 20 21 23 24
4 4 4 4 2 4 3 4 3 1 2 2 2 4 1 3 5 2 2 4 4 6 8 8 11 15 18 22 25 25 23 19 15 12 11 11 12 13 14 15 16 18 19 20 21 23 27 30 32 33 34 33 32 33 32 31 29 26 25 25 25 25 26 27 27 26 25 26 28 28 25 22 20 18 18 19 20 22 24 24 25 25 24 24 23 23 24 24 23 23 22 21 20 20 21 22 24
5 2 3 4 2 4 2 3 2 2 4 2 3 3 1 4 3 1 3 5 6 8 10 11 13 15 16 17 21 24 24 19 15 13 12 12 13 15 16 16 18 20 21 22 23 26 29 32 33 34 35 33 32 33 33 33 31 27 25 25 25 25 25 26 26 26 26 27 28 28 25 22 19 18 19 20 21 22 23 25 26 27 27 26 25 24 23 24 24 24 23 22 22 21 21 21 22
2 2 5 4 3 3 1 2 1 3 5 4 3 1 2 2 1 2 4 8 8 9 9 10 11 13 14 16 18 21 22 18 14 14 14 13 14 17 18 18 19 20 21 23 25 27 29 31 32 34 35 34 33 34 34 34 33 29 26 26 26 26 26 26 26 26 26 27 28 28 26 23 21 21 21 22 23 23 24 25 26 27 28 29 28 26 25 24 24 25 25 24 24 23 23 22 22
1 2 4 2 2 3 1 2 4 2 2 3 2 2 4 2 0 1 4 8 9 8 10 11 12 12 12 15 16 16 17 16 15 16 17 17 17 18 18 17 17 20 23 26 28 30 30 31 31 31 33 33 34 35 36 36 35 31 28 27 28 28 27 27 26 26 26 27 28 28 27 24 23 23 24 23 23 24 24 25 26 28 29 30 30 29 28 26 25 26 27 27 26 25 25 24 23
1 3 2 1 2 5 3 0 0 3 2 2 1 1 4 3 2 3 5 7 9 10 12 13 14 14 12 13 13 12 14 15 16 16 16 16 15 15 15 17 21 25 29 31 31 30 30 31 31 31 31 32 34 37 37 37 36 34 31 30 29 29 29 28 27 27 26 27 28 28 27 25 24 24 24 24 24 24 25 26 27 28 30 31 31 31 30 29 28 28 28 29 29 28 27 26 25
2 2 1 2 1 3 4 1 3 5 1 3 1 1 4 3 2 5 7 8 9 10 12 14 14 14 13 14 13 12 11 11 12 12 12 13 15 17 19 24 28 30 30 30 29 29 29 29 29 30 30 30 32 35 37 38 38 36 34 33 32 31 30 29 28 27 27 27 28 28 26 25 26 26 25 25 25 25 26 27 28 29 31 32 32 32 32 31 31 31 31 31 31 31 30 29 28
6 4 3 2 2 1 1 2 2 3 1 4 3 2 3 2 3 5 7 6 7 8 8 10 12 12 11 10 9 8 8 9 11 13 16 18 21 25 27 29 30 29 29 29 29 29 29 28 28 29 32 33 33 33 34 36 39 40 39 37 35 34 32 30 29 27 28 28 29 28 26 25 26 26 26 26 26 27 27 28 28 29 31 32 33 33 33 33 33 33 33 33 33 33 32 32 30
6 4 2 3 3 3 0 1 1 1 0 3 4 3 3 4 3 3 5 5 5 5 4 4 7 10 10 10 11 11 12 13 16 20 23 25 27 28 29 29 29 30 30 31 32 32 32 33 34 36 38 38 36 34 33 33 35 38 39 39 39 38 34 31 29 28 29 30 29 28 26 25 26 27 27 27 27 27 28 29 30 30 31 33 33 33 33 33 34 34 34 34 34 34 34 34 33
3 4 4 3 1 1 1 1 2 2 2 1 2 4 5 4 2 3 5 4 4 3 2 3 6 10 11 12 14 16 18 20 22 24 25 27 28 29 29 29 30 31 32 34 34 35 35 37 38 38 37 36 34 33 33 33 33 34 36 37 39 39 35 31 30 30 30 31 30 29 28 27 26 27 27 27 27 27 28 30 31 31 32 33 33 33 33 33 34 35 34 34 35 35 35 36 35
3 2 3 2 1 3 3 1 2 2 2 4 2 4 7 3 2 4 4 3 2 1 2 4 7 10 13 16 18 20 22 24 25 25 26 27 28 29 30 30 32 33 34 35 35 36 37 38 38 37 35 33 32 32 32 32 32 33 34 34 33 34 32 31 32 32 32 32 31 30 29 28 27 27 27 27 27 27 28 30 31 32 32 33 34 33 33 33 34 34 34 34 35 35 36 37 36
Wind_Direction
307 299 292 287 191 134 86 114 113 358 86 106 298 229 258 221 175 144 242 277 157 198 142 106 93 105 91 105 155 153 130 144 178 99 337 320 357 358 352 347 343 344 342 340 341 342 341 337 334 333 335 334 329 323 313 307 296 288 279 268 265 266 263 255 250 248 247 252 257 257 248 228 212 204 207 204 199 207 210 211 212 213 213 212 209 206 211 205 196 194 184 181 181 181 189 194 191
305 298 291 254 145 149 127 87 100 338 53 347 282 186 261 320 127 194 201 204 158 118 122 114 97 94 92 104 94 74 74 24 346 342 346 356 5 359 351 344 341 343 342 340 338 340 340 336 333 331 331 332 328 323 317 311 304 295 290 286 280 273 267 260 257 257 248 243 252 256 246 234 221 207 203 202 200 205 211 211 208 212 214 214 213 210 213 210 203 198 188 183 181 182 185 189 194
313 317 310 169 115 121 120 61 93 88 87 235 273 239 251 134 205 226 203 184 92 110 122 112 104 90 77 77 66 78 63 23 8 7 19 9 1 0 353 345 342 343 343 341 339 339 338 337 335 330 329 329 323 317 312 306 301 297 292 288 286 280 273 266 260 258 249 240 242 242 232 228 229 217 206 204 200 204 211 214 207 210 213 213 214 211 210 206 204 203 192 183 181 183 184 190 197
351 30 17 121 113 92 86 53 119 118 131 216 278 274 230 176 227 250 194 142 95 116 126 105 97 73 57 48 63 91 39 31 26 21 26 9 1 358 349 346 343 341 343 342 340 338 335 334 334 330 326 323 320 314 309 306 302 300 294 286 294 296 285 275 264 256 248 244 240 238 231 220 215 210 221 213 193 200 209 213 211 211 210 213 215 210 210 208 205 204 201 195 198 200 198 202 203
4 36 55 123 120 82 85 74 103 114 182 188 231 284 231 204 243 269 114 106 109 116 122 116 100 76 78 55 56 43 7 17 29 27 30 14 3 353 347 350 346 344 344 343 342 338 333 331 329 326 321 319 320 316 311 309 305 302 298 290 295 300 295 285 272 260 251 247 240 237 233 222 210 194 210 212 191 200 204 210 211 211 210 211 213 209 211 214 212 207 207 206 204 204 206 207 200
340 50 71 93 101 99 109 104 149 180 230 175 185 277 245 231 232 189 103 100 103 100 115 105 101 115 98 71 61 44 22 20 26 26 32 18 2 355 357 2 1 1 356 349 342 337 333 330 328 324 318 317 321 317 311 309 307 304 302 298 295 297 298 293 285 272 257 250 242 236 232 226 216 194 198 201 190 194 193 206 208 207 211 210 212 212 213 214 213 210 209 209 207 208 209 206 193
298 76 59 83 78 54 107 137 187 226 241 172 199 258 292 294 214 141 94 101 100 85 100 85 89 118 110 98 69 53 51 56 43 34 35 22 5 5 14 23 23 24 16 5 355 347 340 333 329 324 318 316 319 313 306 304 305 305 303 301 299 299 297 295 294 282 261 250 245 238 231 220 210 197 199 200 196 191 182 201 208 203 206 206 208 213 214 209 209 209 208 210 216 221 218 210 198
205 103 56 90 52 25 98 117 220 217 234 212 227 258 302 318 159 136 89 93 114 76 96 89 76 112 219 126 78 59 73 74 59 49 46 35 16 15 21 26 30 30 25 18 11 8 360 353 345 336 327 320 316 308 304 300 300 302 297 293 295 297 297 296 291 284 267 252 246 233 222 211 201 195 199 204 200 179 175 202 209 207 208 207 207 209 212 208 208 212 214 220 227 230 226 216 207
96 89 62 84 79 39 56 321 253 230 254 271 275 285 311 105 128 127 107 68 84 84 101 99 49 117 219 76 89 69 70 76 76 89 56 45 22 8 4 3 12 17 14 5 359 358 355 353 349 343 338 330 320 308 303 301 297 295 294 290 291 294 295 296 289 285 273 258 251 230 213 207 203 195 195 202 197 185 199 213 206 211 211 207 210 206 210 215 216 221 226 231 234 235 228 219 211
74 61 88 81 89 67 341 278 258 245 255 284 290 305 53 119 115 108 111 93 70 89 107 110 61 116 135 70 74 35 28 36 188 188 41 34 14 352 347 354 360 2 358 350 343 337 333 330 329 327 327 329 325 317 309 306 300 294 294 292 290 289 289 291 291 288 275 264 257 237 214 206 203 191 194 214 220 213 216 199 193 205 205 206 214 208 211 220 220 218 220 228 231 232 229 221 214
68 45 98 77 70 133 241 239 282 276 279 305 306 2 65 125 116 94 90 96 67 85 90 22 51 87 99 79 66 40 17 315 246 342 22 17 358 341 341 346 342 343 344 342 341 332 329 324 323 322 322 324 323 321 316 314 310 301 294 290 289 283 282 282 283 284 278 273 256 232 211 205 203 191 206 239 227 196 172 174 190 195 193 204 213 207 205 218 226 215 203 218 229 230 231 219 209
142 25 80 89 124 183 201 198 276 284 310 322 52 34 69 120 113 100 94 93 48 83 62 11 8 351 53 99 72 51 292 267 20 24 11 357 339 333 330 328 322 327 327 329 332 326 327 325 325 324 326 329 328 326 322 322 322 318 306 297 294 288 285 280 281 283 284 279 248 221 205 199 197 193 203 203 180 169 170 181 196 197 193 202 208 201 198 216 230 219 197 206 225 229 231 220 206
150 142 91 106 167 152 147 172 277 306 329 293 184 19 66 95 84 113 108 81 36 67 30 2 349 271 26 125 71 31 57 45 33 21 353 340 327 318 307 303 305 310 310 313 314 315 320 322 326 327 330 334 337 337 332 333 336 336 328 315 308 304 302 290 288 288 293 287 238 212 198 188 180 166 146 153 168 189 194 191 203 212 208 206 206 202 214 231 227 221 212 205 217 219 225 219 204
126 144 105 121 113 127 160 183 268 283 290 265 307 16 81 84 76 102 111 82 34 25 343 4 354 201 17 357 311 355 24 28 16 5 344 334 315 300 293 295 299 300 301 304 306 311 314 317 324 328 334 337 340 344 344 345 348 350 342 332 325 323 320 303 301 296 301 297 225 205 185 171 150 122 107 149 196 201 203 201 210 217 220 222 222 222 234 245 233 224 224 215 219 214 217 210 196
122 121 95 113 46 264 198 189 148 146 238 275 19 63 89 85 84 86 85 106 54 24 208 349 4 155 16 360 340 351 2 357 346 338 330 316 299 291 293 301 306 308 308 309 309 309 310 314 319 326 333 338 342 348 353 355 357 357 354 348 339 334 331 311 307 297 297 280 215 199 164 145 121 85 28 299 240 217 206 202 206 208 214 218 219 230 238 241 235 228 225 223 223 215 210 199 191
124 111 72 91 181 262 227 176 121 117 243 269 51 97 89 73 78 70 58 124 92 52 108 51 31 83 75 47 9 358 354 341 331 318 306 289 283 284 293 300 309 317 318 315 313 311 312 314 316 322 328 334 341 349 355 1 4 3 4 359 352 352 351 329 310 296 289 256 202 168 138 136 109 23 343 289 270 243 216 208 207 204 209 212 210 222 231 233 230 229 231 232 231 224 214 196 191
132 103 70 86 191 219 216 186 146 121 243 266 51 100 103 78 78 84 85 108 91 67 74 70 66 82 66 51 28 5 350 333 320 303 295 288 284 285 293 300 306 313 317 319 318 315 314 313 313 318 321 325 332 345 351 0 11 11 11 7 5 7 2 356 352 342 272 204 172 148 137 146 125 4 356 295 284 269 234 214 208 205 207 213 213 217 223 225 223 221 226 234 237 236 226 200 195
141 104 104 171 198 197 191 183 190 156 168 207 66 86 111 103 94 103 102 78 81 80 73 74 78 75 62 50 35 8 347 324 311 301 297 299 299 300 306 313 317 319 321 322 321 319 317 316 315 314 316 317 318 334 346 355 12 15 18 19 16 9 5 18 50 84 121 143 148 151 152 168 217 340 353 292 271 262 242 217 208 208 206 211 216 221 222 220 221 220 222 233 239 241 237 208 200
140 102 122 210 205 205 196 179 187 173 144 144 105 104 112 97 127 125 117 54 68 72 54 69 82 68 62 41 25 7 349 329 321 317 316 319 321 323 324 326 328 330 332 333 333 331 328 326 323 318 314 312 311 321 333 345 6 16 22 29 21 10 10 31 63 94 108 151 162 174 198 239 264 296 322 283 254 244 232 219 216 212 212 213 217 225 224 218 222 226 228 235 240 243 244 221 208
161 109 136 237 216 224 222 202 213 228 171 138 122 133 100 63 96 150 129 81 57 52 21 28 38 23 19 13 6 359 349 338 336 335 336 340 341 340 337 335 336 340 346 349 349 344 339 336 333 330 324 318 317 318 324 335 355 10 20 30 22 11 9 345 335 300 298 282 224 217 240 260 272 273 247 245 243 233 220 222 226 221 219 218 219 224 225 223 223 228 231 237 242 244 249 237 220
169 143 182 222 188 221 252 229 234 215 178 145 139 137 96 72 65 85 131 101 47 49 28 16 17 12 11 5 360 356 347 341 343 343 344 348 349 349 350 353 355 356 356 352 350 351 351 350 345 339 334 330 326 324 326 329 342 359 11 22 22 11 310 216 246 250 259 252 231 231 239 248 264 264 243 232 230 226 222 226 230 226 222 224 229 227 225 228 228 231 234 238 244 246 249 247 235
174 195 208 187 152 188 303 192 177 175 166 145 142 137 125 100 61 54 87 105 76 66 48 46 34 24 17 10 6 356 351 353 355 356 358 359 360 360 1 360 358 356 355 352 354 358 359 359 357 350 343 337 334 334 335 330 331 343 351 1 13 13 9 253 233 225 223 217 215 227 232 235 249 255 242 232 227 225 226 227 229 229 224 226 232 233 233 233 233 236 241 244 247 250 252 252 249
198 265 263 196 176 221 286 183 169 174 165 151 153 151 135 111 70 56 74 88 106 102 86 81 54 41 30 15 8 4 10 15 15 17 16 16 14 12 10 5 1 360 360 3 4 5 3 4 2 357 351 343 338 338 339 336 329 331 333 344 9 8 358 343 311 267 233 214 212 224 227 228 240 245 237 239 242 241 239 235 233 234 231 228 230 238 243 241 239 242 247 251 251 255 256 253 254
157 272 316 63 224 239 248 213 179 181 153 146 153 151 134 113 100 76 79 90 112 111 95 82 68 61 47 27 29 33 37 39 39 39 36 35 34 31 27 21 19 14 9 11 11 11 10 10 9 3 360 355 350 344 343 346 340 341 336 328 1 359 338 343 343 329 313 273 239 236 226 222 229 233 234 242 249 250 250 243 238 239 239 235 230 237 247 247 248 249 251 256 257 259 257 255 259
133 236 297 18 290 243 248 254 225 228 141 143 135 114 100 116 119 93 86 104 113 109 98 84 82 72 63 61 60 62 64 63 62 60 58 57 55 53 48 44 40 34 28 25 20 19 18 18 16 10 8 8 8 1 357 0 356 356 349 331 343 348 337 344 343 335 334 326 302 285 256 233 228 229 229 232 239 244 245 241 239 241 243 244 236 236 245 248 251 254 254 257 261 265 264 261 265
154 197 292 296 293 299 275 253 242 241 180 154 119 90 109 120 111 84 95 121 114 112 100 87 87 81 77 77 76 77 76 75 73 70 68 67 64 60 57 53 50 47 44 40 34 29 26 22 21 17 13 12 13 11 8 11 10 7 4 358 342 335 342 338 321 317 323 330 333 325 306 276 252 242 235 232 235 236 236 236 237 241 244 247 244 242 246 246 250 256 258 260 262 266 268 268 269
311 302 306 287 287 297 272 253 254 225 190 173 137 117 130 127 105 94 126 128 123 119 98 93 92 87 85 83 82 80 78 76 73 72 70 67 63 60 57 55 52 51 49 46 43 39 34 28 26 23 19 14 12 13 14 15 15 16 16 16 9 357 358 334 303 306 313 321 331 336 332 315 289 268 249 242 244 241 237 233 234 236 239 243 244 244 246 248 252 256 259 260 263 265 266 268 268
318 314 304 292 304 298 270 281 261 181 193 181 142 128 107 57 57 130 141 134 133 121 98 96 93 89 89 86 83 81 77 74 71 68 65 62 60 58 57 55 52 51 48 47 45 43 41 37 34 31 27 23 17 14 15 14 13 14 14 14 15 13 7 360 347 318 313 319 321 325 334 333 318 294 268 257 260 262 255 247 243 236 232 235 238 238 241 247 252 256 259 259 261 262 260 260 261
293 23 307 302 346 338 316 350 182 148 178 166 138 122 1 25 78 132 140 136 133 117 100 96 94 91 90 87 84 81 77 73 70 67 65 63 61 59 57 55 52 51 48 46 45 43 42 40 38 36 34 30 25 20 16 14 13 10 7 5 6 8 6 4 4 359 347 331 319 319 325 330 330 322 306 288 279 276 268 265 265 253 240 235 233 234 238 244 247 251 256 257 258 258 257 256 255
241 59 65 322 3 5 346 26 133 94 135 156 134 154 269 45 121 140 139 138 128 107 99 97 96 94 91 88 85 81 77 74 72 69 67 64 62 59 57 55 51 49 47 44 43 41 39 38 36 35 34 32 30 27 23 18 14 9 6 4 1 358 359 359 358 359 359 354 343 332 323 321 324 327 321 311 300 291 278 269 266 261 257 251 241 237 239 242 244 247 251 255 257 258 257 256 254
302 18 48 9 6 285 326 24 100 69 157 172 106 282 228 151 154 150 139 136 124 104 101 101 99 96 92 89 86 82 79 76 74 71 67 63 61 59 57 54 52 49 47 44 42 41 39 37 35 34 32 31 29 27 26 23 18 13 9 8 6 2 359 355 351 349 349 350 349 342 334 326 322 322 321 319 312 302 292 280 271 264 260 260 257 252 249 246 245 245 247 250 255 257 257 257 256
20 29 313 353 92 273 317 7 50 96 179 209 71 196 234 145 160 165 162 171 143 117 108 107 102 99 94 91 88 85 82 80 76 71 66 64 62 61 59 57 55 52 49 47 45 43 40 38 36 35 33 31 28 26 24 22 19 17 13 11 9 6 4 1 356 352 346 341 337 336 336 331 325 321 318 317 315 309 302 294 287 277 267 262 262 262 261 257 253 251 250 250 252 255 257 257 257
358 85 224 297 52 303 318 11 6 79 144 32 43 161 186 121 137 165 180 181 152 126 115 114 107 102 98 95 94 91 88 84 78 72 69 67 66 64 63 60 57 54 50 48 44 41 39 37 34 32 31 30 27 26 23 20 17 15 13 11 7 3 2 2 2 359 353 346 340 335 331 328 324 321 318 313 309 308 306 302 295 287 280 274 271 268 264 258 257 258 257 256 256 255 257 258 258
331 29 80 267 220 295 302 327 4 33 120 62 30 99 126 114 114 136 160 164 149 129 123 122 112 107 101 99 99 94 91 86 80 76 73 71 69 66 64 60 56 53 48 45 41 38 35 32 30 28 27 26 24 23 21 19 16 14 11 8 4 1 360 359 358 355 353 351 346 340 335 328 322 318 318 316 310 305 302 302 300 294 288 283 281 277 269 259 257 261 263 263 261 257 256 257 260
201 287 40 309 279 259 271 261 349 15 50 99 43 84 123 96 100 123 143 153 145 131 128 127 118 113 105 103 102 95 93 89 83 80 77 74 71 67 63 58 53 49 44 40 37 33 31 28 25 23 22 21 19 18 17 16 15 13 10 7 3 360 358 354 351 349 348 347 344 341 338 331 324 317 314 313 313 309 303 301 299 298 295 290 286 282 277 268 260 258 260 263 262 258 255 255 258
163 180 167 199 259 268 249 249 293 7 56 54 31 110 137 122 106 119 139 148 140 134 133 132 125 117 112 109 103 98 95 91 88 85 81 76 72 66 60 54 49 44 40 35 32 28 26 24 21 18 17 16 13 12 11 10 10 10 9 6 3 359 354 350 346 345 343 342 340 338 334 331 326 320 314 310 309 308 307 305 302 300 299 297 294 287 281 276 269 264 260 259 259 257 255 255 257
121 128 154 204 224 276 272 288 316 7 101 24 53 104 117 127 130 128 143 144 138 141 141 139 135 126 124 117 107 103 98 97 94 89 84 77 70 64 57 52 45 41 36 32 28 25 23 21 18 16 15 12 9 8 7 6 5 7 7 6 4 360 353 347 342 340 339 338 337 335 331 328 324 321 317 312 306 304 303 302 299 297 297 297 297 295 289 282 278 275 271 266 262 260 257 256 257
80 123 184 287 221 260 275 259 328 353 71 15 92 97 92 119 137 150 154 148 154 160 154 151 151 141 137 126 114 109 103 102 98 91 85 75 67 60 52 47 41 37 33 29 26 24 22 19 17 15 13 11 9 8 8 6 6 6 6 6 4 360 354 347 340 336 335 334 332 330 328 325 322 319 318 316 312 307 302 300 298 295 292 291 291 291 288 284 281 279 277 275 271 267 263 260 258
73 100 148 302 259 276 295 283 332 353 53 189 117 93 78 100 114 172 185 193 185 173 164 163 163 155 149 136 121 116 110 107 104 96 85 73 63 55 48 42 38 34 31 28 25 23 20 18 16 14 12 10 9 8 7 6 6 5 3 2 1 358 355 350 342 335 330 328 327 327 327 326 324 322 319 318 317 315 311 306 303 300 296 290 286 283 281 279 278 278 278 278 276 273 271 268 263
92 108 134 255 280 328 291 296 331 351 57 136 127 96 83 63 52 188 223 245 192 181 183 183 178 171 160 147 134 128 123 117 112 100 83 70 58 49 42 37 34 31 28 25 22 20 18 16 14 12 11 10 8 7 6 5 4 2 0 359 357 355 353 350 345 337 330 325 323 324 325 326 327 326 324 321 320 319 318 314 309 306 302 298 292 288 285 282 279 277 276 277 278 278 276 274 271
321 155 152 219 271 208 219 289 329 356 37 102 115 75 31 197 236 239 300 355 192 195 199 203 201 194 185 178 165 153 147 138 126 107 82 63 49 41 35 31 28 26 23 20 19 17 15 13 10 9 8 7 5 4 3 2 0 359 357 355 353 351 349 347 345 341 335 328 325 326 327 328 329 328 327 325 323 321 321 320 317 312 307 305 301 296 293 290 288 284 280 277 277 279 278 277 276
327 210 187 191 194 193 235 346 13 31 7 37 85 34 314 310 261 247 20 24 249 229 225 223 216 208 209 206 194 180 171 165 156 125 78 46 36 31 26 23 21 19 18 16 14 13 11 8 7 5 3 2 1 360 359 358 357 356 354 352 350 349 347 345 343 341 336 330 326 327 329 330 330 330 330 329 327 324 322 322 322 320 315 310 306 302 297 294 293 292 289 285 281 280 278 276 275
25 206 172 153 127 117 350 358 53 76 287 326 53 112 266 315 304 274 47 268 267 260 248 239 228 222 220 216 208 200 191 188 194 196 7 10 13 13 14 14 12 12 11 10 9 7 5 4 2 0 359 358 357 356 355 354 354 354 352 350 348 345 343 341 339 336 331 326 322 322 324 328 331 331 331 331 330 329 327 324 323 323 322 318 313 307 301 296 294 294 294 293 291 288 284 280 277
39 172 127 114 56 263 227 165 148 199 232 334 20 98 201 300 299 316 229 237 271 263 251 245 236 231 226 221 218 212 204 204 214 233 274 317 341 350 358 2 1 3 3 3 3 1 360 359 357 356 355 353 352 352 351 350 350 350 349 347 344 341 339 337 334 331 327 323 319 318 319 323 328 331 333 333 334 333 332 331 328 327 326 324 321 315 309 303 297 294 292 292 293 292 290 288 285
269 185 125 104 219 198 163 127 137 316 56 339 336 44 89 282 287 360 359 249 275 265 249 240 233 231 230 226 224 221 217 218 229 248 270 293 315 329 339 347 351 352 353 354 355 355 354 353 352 351 350 348 346 346 345 344 345 344 344 343 340 338 336 334 332 330 327 323 321 320 318 319 322 326 331 334 336 336 337 336 335 333 331 330 328 325 320 312 305 299 293 290 290 290 290 291 289
200 139 94 53 67 86 88 100 120 41 53 298 309 11 95 279 291 11 14 265 263 266 264 244 231 231 231 230 227 224 224 227 237 253 272 288 303 315 324 333 341 343 343 346 347 348 348 347 346 345 344 342 340 339 339 338 338 339 339 338 338 337 336 333 331 329 328 327 326 324 322 320 318 320 324 328 333 336 338 339 338 338 337 336 335 332 329 323 315 309 302 296 292 290 290 289 289
120 112 67 59 52 45 61 65 93 61 18 260 284 2 87 324 289 228 200 217 212 240 289 272 236 230 231 232 230 226 228 233 241 255 272 287 300 311 316 323 333 336 335 338 340 341 341 340 339 339 339 338 336 334 333 331 331 332 333 333 334 335 335 333 330 327 326 326 327 327 325 321 318 316 317 321 327 332 336 339 340 340 339 338 337 336 335 333 329 322 315 307 300 295 292 289 288
91 88 57 89 17 11 32 358 39 69 339 257 278 344 77 161 266 241 235 235 195 195 240 257 237 234 234 234 232 229 231 236 242 254 272 286 299 311 316 320 327 329 329 330 332 333 335 336 334 333 334 334 331 329 327 324 323 324 326 327 328 329 331 331 329 326 324 326 328 328 327 323 318 315 315 318 322 328 333 337 339 340 340 339 338 337 337 335 334 332 326 319 311 303 297 292 290
45 52 53 72 8 10 22 338 13 94 251 250 312 347 27 224 240 237 256 253 233 230 240 248 248 248 245 241 238 235 234 237 241 253 273 286 298 309 315 318 321 323 324 325 327 329 331 332 330 328 327 327 325 322 320 316 313 315 319 319 319 321 324 326 327 325 324 326 328 328 326 322 319 317 318 321 324 327 330 333 336 338 339 339 339 337 336 335 334 334 331 328 322 314 305 298 294
26 59 80 84 76 47 351 299 353 306 272 283 332 352 328 281 279 183 233 263 272 275 274 269 263 262 263 260 253 244 238 238 245 259 274 288 303 311 313 315 317 319 323 325 327 329 329 328 325 322 321 320 319 317 315 310 306 306 310 313 313 313 315 319 322 323 323 323 325 326 322 318 317 319 321 324 326 328 329 330 332 334 336 336 337 337 335 334 334 333 333 332 328 323 315 307 300
32 145 114 104 130 115 229 243 227 284 285 299 326 25 189 278 321 189 249 290 297 295 297 293 283 278 275 274 266 252 242 242 253 266 279 293 308 313 312 314 317 321 326 328 327 325 322 321 319 317 315 314 313 312 311 307 302 300 302 306 308 307 308 311 315 318 319 320 322 322 317 311 311 316 321 323 324 326 327 329 330 331 332 333 333 334 334 333 332 332 333 332 331 327 321 314 308
13 122 84 65 152 135 124 186 182 210 312 301 284 209 215 230 342 268 304 316 317 315 312 306 299 296 288 280 275 261 249 252 262 272 285 295 303 310 314 317 321 324 325 323 321 319 316 315 314 312 311 310 310 310 309 306 299 295 295 300 303 303 302 303 307 311 314 316 318 319 314 305 305 312 317 319 321 323 324 326 328 329 330 330 330 331 332 332 331 331 332 332 331 329 325 320 315
37 56 56 240 170 123 102 7 7 68 51 288 252 254 291 337 354 333 356 348 343 347 336 321 310 306 302 293 291 279 263 265 274 284 296 304 312 320 323 323 321 321 320 318 318 317 315 314 312 310 309 309 307 307 308 304 297 292 291 295 299 299 297 298 301 304 309 311 313 315 312 303 303 309 312 315 318 319 321 323 325 327 328 328 328 328 329 331 331 330 331 331 331 330 327 324 321
89 68 196 218 74 85 99 69 3 37 48 280 313 258 298 343 311 327 15 9 346 349 350 344 337 327 315 306 304 298 288 290 299 310 321 326 329 327 322 320 320 319 318 318 319 319 317 316 315 314 312 311 308 306 305 301 294 290 291 293 295 296 293 293 296 300 304 306 308 310 309 303 303 306 308 311 313 315 317 319 321 323 325 326 326 325 326 328 329 330 330 330 331 330 328 327 325
85 131 161 97 80 42 42 68 18 21 326 294 305 282 268 204 235 329 360 351 332 338 350 353 354 351 343 340 344 342 337 336 333 334 332 328 326 323 322 321 320 318 317 317 318 317 317 317 318 318 317 316 313 308 305 301 294 289 289 290 292 292 289 288 291 296 299 301 303 304 304 303 304 304 304 306 308 311 313 314 316 319 321 323 323 322 323 324 326 328 328 329 329 329 327 327 327
53 83 38 26 119 158 23 68 126 126 228 292 311 324 285 219 226 318 316 303 315 325 332 354 13 25 31 29 21 8 355 345 336 333 329 327 325 324 323 321 317 316 317 318 319 320 321 322 322 322 321 319 316 308 303 303 298 294 291 291 291 289 286 286 289 294 296 297 299 299 299 301 302 301 300 301 303 306 308 309 311 314 317 319 319 318 319 320 322 324 325 326 327 327 327 327 327
28 49 32 6 27 92 68 73 96 113 150 230 319 311 275 230 196 236 255 275 280 267 301 14 30 35 29 15 4 354 345 338 334 332 329 326 325 322 320 317 316 317 319 321 324 325 327 327 327 326 323 321 319 313 308 307 304 300 296 293 292 289 285 286 289 291 294 294 295 295 296 297 297 296 297 297 299 301 302 303 305 309 312 314 314 313 314 315 317 319 321 323 325 325 325 327 327
137 111 111 125 79 84 86 360 330 70 143 172 158 282 273 240 179 225 234 236 240 230 46 26 16 11 1 353 350 344 337 334 333 331 328 325 322 319 316 316 318 321 324 326 329 329 330 330 328 327 323 321 321 320 318 316 311 305 299 296 295 290 285 286 289 291 292 293 293 293 293 293 292 292 293 292 293 294 295 297 301 305 308 309 309 308 309 311 312 314 316 319 322 323 324 325 326